[[{"header":{"parameterUnit":"m.s-1","parameterCategory":2,"la1":30.2991,"la2":30.254,"lo1":-89.0895,"lo2":-89.0444,"dy":0.0017,"dx":0.0017,"nx":28,"ny":28,"refTime":"2023-11-05T09:00:00:Z","depth":"0","parameterNumber":2,"parameterNumberName":"U-component_of_CURRENTS"},"data":[0,0,0,0,0,0,0,0,0,0,0,0,0,0,0,0,0,0,0,0,0,0,0,0,0,0,0,0,0,0,0,0,0,0,0,0,0,0,0,0,0,0,0,0,0,0,0,0,0,0,0,0,0,0,0,0,0,0,-0.3589,-0.3588,0,-0.3501,-0.3499,-0.3498,-0.3463,-0.3464,-0.3464,-0.3464,-0.3285,-0.328,-0.3275,0,0,0,0,0,0,0,0,0,0,0,0,0,-0.3621,-0.3621,-0.3589,-0.3588,-0.3587,-0.3501,-0.3499,-0.3498,-0.3463,-0.3464,-0.3464,-0.3465,-0.3287,-0.3281,-0.3275,0,0,0,0,0,0,0,0,0,0,0,0,0,-0.3576,-0.3621,-0.3589,-0.3561,-0.3558,-0.3501,-0.3499,-0.3498,-0.3463,-0.3464,-0.3464,-0.3465,-0.3289,-0.3281,-0.3274,-0.3214,0,0,-0.325,-0.3247,0,0,0,0,0,0,0,0,-0.3579,-0.3575,-0.3566,-0.3563,-0.3559,-0.3495,-0.3445,-0.3399,-0.3463,-0.3497,-0.3464,-0.3465,-0.3348,-0.3335,-0.3316,-0.3205,-0.3198,-0.3249,-0.3245,-0.3241,-0.3239,0,0,0,0,0,0,0,-0.3582,-0.3577,-0.3552,-0.3565,-0.3561,-0.3516,-0.3511,-0.3436,-0.3417,-0.3494,-0.3492,-0.3485,-0.3345,-0.3323,-0.3311,-0.3195,-0.325,-0.3243,-0.3238,-0.3235,-0.3112,-0.3114,0,0,0,0,0,0,-0.3602,-0.3581,-0.3555,-0.355,-0.3573,-0.3516,-0.351,-0.3514,-0.342,-0.3407,-0.3484,-0.3483,-0.3336,-0.332,-0.3305,-0.3292,-0.3241,-0.3234,-0.323,-0.3111,-0.3113,-0.3114,0,0,0,0,0,0,-0.3603,-0.3601,-0.3559,-0.3564,-0.3556,-0.3515,-0.3519,-0.3512,-0.3501,-0.3414,-0.3399,-0.3484,-0.3336,-0.3315,-0.3259,-0.3283,-0.3231,-0.3224,-0.3109,-0.3112,-0.3113,-0.3226,0,0,0,0,0,0,-0.3604,-0.3602,-0.3612,-0.3566,-0.3557,-0.3558,-0.3518,-0.3509,-0.3496,-0.3495,-0.3407,-0.3391,-0.3335,-0.3271,-0.3251,-0.3271,-0.3218,-0.3108,-0.311,-0.3113,-0.3221,-0.3232,-0.3241,0,0,0,0,0,-0.3606,-0.3633,-0.3614,-0.3611,-0.3573,-0.356,-0.3552,-0.3522,-0.3496,-0.351,-0.3443,-0.3395,-0.3275,-0.3265,-0.3242,-0.326,-0.3106,-0.311,-0.3113,-0.3216,-0.3229,-0.3241,0,0,0,0,0,0,-0.3647,-0.3631,-0.3609,-0.3627,-0.3606,-0.3556,-0.3559,-0.3529,-0.3486,-0.3474,-0.3391,-0.337,-0.334,-0.3281,-0.3273,-0.3237,-0.319,-0.3189,-0.3277,-0.3288,-0.3299,-0.3311,-0.3211,0,0,0,0,0,-0.3661,-0.3678,-0.3647,-0.3657,-0.3652,-0.3601,-0.3589,-0.3567,-0.3521,-0.3504,-0.3435,-0.3371,-0.3332,-0.3296,-0.3248,-0.3203,-0.315,-0.3208,-0.3218,-0.3227,-0.3225,-0.3166,-0.3171,-0.3124,-0.3124,-0.3124,0,0,-0.3676,-0.3668,-0.3676,-0.3667,-0.364,-0.3643,-0.3597,-0.3589,-0.3584,-0.3486,-0.3449,-0.3399,-0.3331,-0.3304,-0.3285,-0.3255,-0.3219,-0.3231,-0.324,-0.3231,-0.317,-0.3174,-0.3178,-0.3127,-0.3126,-0.3126,0,0,-0.3716,-0.371,-0.3736,-0.373,-0.3708,-0.3679,-0.3683,-0.3635,-0.3614,-0.3572,-0.3517,-0.348,-0.3392,-0.3359,-0.333,-0.3361,-0.3283,-0.3354,-0.3399,-0.3344,-0.3347,-0.3349,-0.331,-0.3308,-0.335,-0.3351,-0.3351,0,-0.3729,-0.3763,-0.374,-0.3761,-0.3761,-0.3702,-0.3724,-0.3693,-0.3628,-0.3611,-0.3581,-0.3475,-0.3423,-0.3394,-0.3419,-0.3384,-0.3341,-0.3358,-0.3357,-0.3357,-0.3357,-0.3317,-0.3312,-0.3356,-0.3356,-0.3355,-0.3355,0,-0.3787,-0.3812,-0.3828,-0.3835,-0.3831,-0.3845,-0.3803,-0.3786,-0.3742,-0.37,-0.3658,-0.3576,-0.3509,-0.3508,-0.347,-0.3454,-0.3422,-0.3384,-0.3325,-0.3368,-0.3324,-0.3317,-0.3365,-0.3363,-0.3361,-0.3359,0,0,-0.3816,-0.3863,-0.3867,-0.387,-0.3877,-0.3859,-0.3877,-0.3861,-0.3826,-0.3781,-0.3734,-0.3701,-0.3634,-0.3599,-0.354,-0.3503,-0.3483,-0.345,-0.3444,-0.3412,-0.3368,-0.312,-0.3088,-0.3438,-0.3437,-0.3436,-0.3345,0,-0.3865,-0.3921,-0.3939,-0.3962,-0.3977,-0.3957,-0.3954,-0.3925,-0.3876,-0.3806,-0.3753,-0.3675,-0.3673,-0.3612,-0.3589,-0.3492,-0.3466,-0.3511,-0.3329,-0.3324,-0.3097,-0.3072,-0.2963,-0.2851,-0.3338,-0.3337,-0.3336,0,-0.392,-0.3942,-0.4001,-0.3999,-0.4,-0.4003,-0.3968,-0.3954,-0.3888,-0.3841,-0.3789,-0.3705,-0.3652,-0.3615,-0.3517,-0.3542,-0.3475,-0.3413,-0.3407,-0.3124,-0.3061,-0.2881,-0.282,-0.2824,-0.3325,-0.3326,-0.3326,0,-0.3926,-0.3976,-0.4019,-0.4028,-0.4025,-0.4034,-0.4016,-0.397,-0.392,-0.3839,-0.3773,-0.3708,-0.362,-0.3557,-0.3427,-0.3471,-0.3282,-0.3319,-0.3049,-0.3033,-0.2874,-0.2841,-0.2784,-0.3251,-0.3251,-0.3251,-0.3251,0,-0.3973,-0.3986,-0.4017,-0.4027,-0.4003,-0.402,-0.397,-0.3943,-0.388,-0.379,-0.3766,-0.3667,-0.3595,-0.3468,-0.3404,-0.3162,-0.326,-0.3034,-0.2971,-0.2909,-0.2882,-0.282,-0.2866,-0.3248,-0.3249,-0.3249,-0.325,0,-0.3945,-0.4008,-0.4003,-0.4012,-0.4006,-0.3968,-0.3916,-0.3868,-0.3839,-0.3719,-0.3686,-0.3614,-0.3439,-0.3321,-0.3168,-0.3072,-0.2825,-0.2798,-0.2722,-0.2647,-0.2381,-0.2437,-0.2254,-0.2192,-0.2509,-0.2501,-0.2495,0,-0.3931,-0.394,-0.3937,-0.3923,-0.3923,-0.3882,-0.385,-0.3828,-0.3779,-0.3669,-0.3606,-0.3429,-0.3197,-0.2874,-0.2705,-0.2473,-0.2544,-0.2255,-0.2304,-0.2309,-0.2331,-0.2397,-0.2368,-0.2185,-0.2177,-0.217,-0.2165,0,-0.3812,-0.3818,-0.3801,-0.3791,-0.3771,-0.3705,-0.3672,-0.3619,-0.3578,-0.345,-0.3239,-0.3035,-0.2762,-0.2425,-0.2141,-0.2039,-0.2191,-0.2105,-0.2148,-0.2069,-0.2105,-0.2033,-0.2339,-0.2107,-0.2113,-0.2117,-0.212,-0.2122,-0.3668,-0.361,-0.3597,-0.3581,-0.3559,-0.3463,-0.3294,-0.3273,-0.3081,-0.2758,-0.2814,-0.2335,-0.2231,-0.1789,-0.1699,-0.1571,-0.1703,-0.1553,-0.1628,-0.1701,-0.1596,-0.1735,-0.1385,-0.1387,-0.1388,-0.139,-0.1391,0,-0.3397,-0.3382,-0.3375,-0.3304,-0.3191,-0.3243,-0.3097,-0.2856,-0.2522,-0.2282,-0.1949,-0.1529,-0.1327,-0.1295,-0.1263,-0.1167,-0.1236,-0.1162,-0.1338,-0.1336,-0.1486,-0.1425,-0.1018,-0.1018,-0.1018,-0.1018,-0.1018,-0.1018,-0.3247,-0.3123,-0.3144,-0.2918,-0.2865,-0.2509,-0.2331,-0.2057,-0.1779,-0.1201,-0.0796,-0.0603,-0.0788,-0.1086,-0.1123,-0.107,-0.1132,-0.1027,-0.1095,-0.1333,-0.1382,-0.1428,-0.1382,-0.0973,-0.0973,-0.0931,-0.0931,-0.0931]},{"header":{"parameterUnit":"m.s-1","parameterCategory":2,"la1":30.2991,"la2":30.254,"lo1":-89.0895,"lo2":-89.0444,"dy":0.0017,"dx":0.0017,"nx":28,"ny":28,"refTime":"2023-11-05T09:00:00:Z","depth":"0","parameterNumber":3,"parameterNumberName":"V-component_of_CURRENTS"},"data":[0,0,0,0,0,0,0,0,0,0,0,0,0,0,0,0,0,0,0,0,0,0,0,0,0,0,0,0,0,0,0,0,0,0,0,0,0,0,0,0,0,0,0,0,0,0,0,0,0,0,0,0,0,0,0,0,0,0,-0.1263,-0.1262,0,-0.1198,-0.1197,-0.1196,-0.1137,-0.1136,-0.1136,-0.1136,-0.1012,-0.1009,-0.1006,0,0,0,0,0,0,0,0,0,0,0,0,0,-0.1293,-0.1293,-0.1263,-0.1262,-0.1262,-0.1199,-0.1197,-0.1196,-0.1137,-0.1136,-0.1136,-0.1136,-0.1013,-0.1009,-0.1005,0,0,0,0,0,0,0,0,0,0,0,0,0,-0.1256,-0.1293,-0.1263,-0.1228,-0.1225,-0.1199,-0.1197,-0.1196,-0.1137,-0.1136,-0.1136,-0.1135,-0.1014,-0.1009,-0.1005,-0.0987,0,0,-0.0991,-0.0989,0,0,0,0,0,0,0,0,-0.1258,-0.1254,-0.1233,-0.123,-0.1227,-0.1179,-0.1163,-0.1124,-0.1137,-0.1166,-0.1136,-0.1135,-0.1065,-0.1056,-0.104,-0.0981,-0.0976,-0.0991,-0.0988,-0.0986,-0.0985,0,0,0,0,0,0,0,-0.1261,-0.1256,-0.1233,-0.1233,-0.1229,-0.1202,-0.1196,-0.1155,-0.1114,-0.1163,-0.116,-0.116,-0.1062,-0.1045,-0.1037,-0.0974,-0.0991,-0.0987,-0.0984,-0.0982,-0.0911,-0.0912,0,0,0,0,0,0,-0.128,-0.1259,-0.1235,-0.1231,-0.1246,-0.1202,-0.1195,-0.1191,-0.1116,-0.1106,-0.116,-0.1157,-0.1053,-0.1042,-0.1032,-0.1005,-0.0986,-0.0982,-0.0979,-0.091,-0.0911,-0.0912,0,0,0,0,0,0,-0.1281,-0.1278,-0.1237,-0.1247,-0.1241,-0.1203,-0.1198,-0.119,-0.118,-0.1115,-0.1103,-0.116,-0.1052,-0.1038,-0.1007,-0.0999,-0.098,-0.0976,-0.0909,-0.0911,-0.0912,-0.0951,0,0,0,0,0,0,-0.1282,-0.1279,-0.1285,-0.1249,-0.1241,-0.123,-0.1199,-0.1189,-0.1182,-0.1178,-0.1111,-0.1098,-0.105,-0.1014,-0.1003,-0.0993,-0.0972,-0.0908,-0.091,-0.0911,-0.0949,-0.0953,-0.0957,0,0,0,0,0,-0.1283,-0.1297,-0.1285,-0.1283,-0.1249,-0.1231,-0.1224,-0.1192,-0.1183,-0.1181,-0.1141,-0.1101,-0.1016,-0.1011,-0.0997,-0.0986,-0.0908,-0.091,-0.0911,-0.0947,-0.0952,-0.0957,0,0,0,0,0,0,-0.1318,-0.1292,-0.1278,-0.1284,-0.1263,-0.1223,-0.1223,-0.1204,-0.1171,-0.1169,-0.1107,-0.1092,-0.1061,-0.1029,-0.1026,-0.0975,-0.0956,-0.0956,-0.0988,-0.0993,-0.0997,-0.1006,-0.0969,0,0,0,0,0,-0.133,-0.133,-0.13,-0.1306,-0.1299,-0.1264,-0.1255,-0.1235,-0.1203,-0.1188,-0.1139,-0.1096,-0.1057,-0.1032,-0.0992,-0.0963,-0.092,-0.0951,-0.0955,-0.0959,-0.096,-0.0941,-0.0943,-0.0918,-0.0918,-0.0918,0,0,-0.1349,-0.1334,-0.1335,-0.1314,-0.1294,-0.1289,-0.1256,-0.125,-0.1241,-0.118,-0.1151,-0.1109,-0.1056,-0.1021,-0.1004,-0.0991,-0.0931,-0.0962,-0.0965,-0.0963,-0.0943,-0.0945,-0.0947,-0.092,-0.0919,-0.0919,0,0,-0.1392,-0.137,-0.1387,-0.1368,-0.1348,-0.1319,-0.1324,-0.1286,-0.1262,-0.1238,-0.119,-0.1148,-0.1092,-0.1041,-0.1013,-0.1022,-0.096,-0.1016,-0.1034,-0.1016,-0.1018,-0.1019,-0.0909,-0.0901,-0.1014,-0.1014,-0.1014,0,-0.1422,-0.1426,-0.139,-0.1396,-0.1386,-0.1339,-0.135,-0.1318,-0.1273,-0.1257,-0.1239,-0.1154,-0.1098,-0.1052,-0.1046,-0.1027,-0.0989,-0.1014,-0.1021,-0.1022,-0.1022,-0.091,-0.09,-0.1016,-0.1016,-0.1016,-0.1015,0,-0.1472,-0.147,-0.1478,-0.1462,-0.1445,-0.1446,-0.14,-0.1378,-0.1346,-0.1311,-0.1267,-0.1194,-0.1143,-0.1116,-0.1076,-0.1048,-0.1005,-0.1032,-0.1006,-0.1027,-0.0907,-0.0895,-0.1019,-0.1018,-0.1018,-0.1017,0,0,-0.1559,-0.1523,-0.1525,-0.1522,-0.1479,-0.1473,-0.145,-0.1417,-0.1411,-0.135,-0.1334,-0.1244,-0.1205,-0.1171,-0.1113,-0.108,-0.1012,-0.1059,-0.1057,-0.0943,-0.0912,-0.0747,-0.0717,-0.1058,-0.1058,-0.1058,-0.0805,0,-0.1613,-0.1635,-0.1594,-0.1605,-0.1612,-0.1547,-0.1532,-0.1491,-0.1446,-0.1414,-0.1331,-0.1296,-0.1227,-0.1205,-0.1159,-0.1082,-0.0995,-0.1074,-0.0914,-0.0907,-0.0755,-0.0705,-0.0635,-0.0395,-0.0793,-0.0791,-0.079,0,-0.1681,-0.1683,-0.1707,-0.1674,-0.1671,-0.1666,-0.1629,-0.1607,-0.154,-0.1508,-0.1448,-0.1387,-0.1302,-0.1262,-0.1098,-0.1162,-0.1024,-0.0943,-0.0933,-0.0763,-0.0723,-0.0451,-0.0359,-0.0234,-0.0772,-0.0773,-0.0775,0,-0.1767,-0.1758,-0.1777,-0.1767,-0.1728,-0.1726,-0.1702,-0.1647,-0.163,-0.1571,-0.1555,-0.1456,-0.14,-0.1277,-0.1053,-0.1104,-0.0852,-0.0909,-0.0597,-0.058,-0.0477,-0.0453,-0.0244,-0.0758,-0.0759,-0.076,-0.076,0,-0.184,-0.1852,-0.1823,-0.1836,-0.1861,-0.1806,-0.182,-0.178,-0.1732,-0.168,-0.1614,-0.1532,-0.1414,-0.1238,-0.1064,-0.0753,-0.0844,-0.0563,-0.0511,-0.048,-0.0459,-0.0313,-0.0296,-0.075,-0.0752,-0.0754,-0.0756,0,-0.1924,-0.1903,-0.1927,-0.1907,-0.1905,-0.1926,-0.1897,-0.1887,-0.1846,-0.1776,-0.1759,-0.1607,-0.1355,-0.1145,-0.0892,-0.0734,-0.0359,-0.0329,-0.0237,-0.018,0.0165,0.0175,0.0463,0.0566,-0.0,0.0005,0.001,0,-0.1963,-0.1987,-0.1994,-0.2013,-0.2006,-0.2022,-0.2012,-0.1958,-0.1915,-0.1764,-0.1708,-0.148,-0.1205,-0.0764,-0.0471,-0.0099,-0.0044,0.0164,0.0075,0.0242,0.0288,0.0281,0.0342,0.0226,0.0232,0.0236,0.024,0,-0.2023,-0.2025,-0.2042,-0.2095,-0.2101,-0.2076,-0.204,-0.1998,-0.1867,-0.1722,-0.1435,-0.1214,-0.0822,-0.0378,0.0043,0.0235,0.0256,0.028,0.0387,0.0455,0.052,0.0624,0.0059,0.0284,0.028,0.0277,0.0274,0.0273,-0.206,-0.2083,-0.21,-0.2152,-0.213,-0.2022,-0.19,-0.1778,-0.1558,-0.1155,-0.1091,-0.0593,-0.0292,0.0316,0.0509,0.0814,0.0707,0.087,0.0873,0.0854,0.0939,0.0539,0.0845,0.0844,0.0843,0.0842,0.0841,0,-0.2059,-0.2083,-0.214,-0.2105,-0.2008,-0.2004,-0.1816,-0.1577,-0.1147,-0.079,-0.0384,0.0216,0.0628,0.0853,0.1185,0.1362,0.1338,0.1411,0.1358,0.1391,0.0995,0.0988,0.1416,0.1416,0.1416,0.1416,0.1415,0.1415,-0.2057,-0.2075,-0.2101,-0.1959,-0.1881,-0.1574,-0.137,-0.1009,-0.0674,0.0072,0.0564,0.0881,0.108,0.1452,0.1716,0.174,0.1836,0.1854,0.1904,0.1554,0.1499,0.1448,0.1446,0.1963,0.1963,0.2286,0.2289,0.2291]}],[{"header":{"parameterUnit":"m.s-1","parameterCategory":2,"la1":30.2991,"la2":30.254,"lo1":-89.0895,"lo2":-89.0444,"dy":0.0017,"dx":0.0017,"nx":28,"ny":28,"refTime":"2023-11-05T09:00:00:Z","depth":"2","parameterNumber":2,"parameterNumberName":"U-component_of_CURRENTS"},"data":[0,0,0,0,0,0,0,0,0,0,0,0,0,0,0,0,0,0,0,0,0,0,0,0,0,0,0,0,0,0,0,0,0,0,0,0,0,0,0,0,0,0,0,0,0,0,0,0,0,0,0,0,0,0,0,0,0,0,-0.238,-0.2381,0,-0.2446,-0.2447,-0.2448,-0.2465,-0.2464,-0.2464,-0.2464,-0.2605,-0.2609,-0.2613,0,0,0,0,0,0,0,0,0,0,0,0,0,-0.2235,-0.2238,-0.238,-0.2381,-0.2382,-0.2446,-0.2447,-0.2448,-0.2465,-0.2464,-0.2464,-0.2464,-0.2604,-0.2609,-0.2613,0,0,0,0,0,0,0,0,0,0,0,0,0,-0.2298,-0.2238,-0.238,-0.2399,-0.2402,-0.2446,-0.2447,-0.2448,-0.2465,-0.2464,-0.2464,-0.2463,-0.2602,-0.2608,-0.2614,-0.2661,0,0,-0.2633,-0.2635,0,0,0,0,0,0,0,0,-0.2295,-0.2303,-0.2395,-0.2398,-0.2401,-0.2448,-0.2448,-0.2523,-0.2465,-0.244,-0.2464,-0.2463,-0.2561,-0.257,-0.2581,-0.2667,-0.2673,-0.2633,-0.2637,-0.2639,-0.2641,0,0,0,0,0,0,0,-0.229,-0.23,-0.2405,-0.2396,-0.24,-0.2393,-0.2401,-0.2461,-0.2502,-0.2442,-0.2443,-0.2453,-0.2562,-0.2575,-0.2584,-0.2675,-0.2633,-0.2638,-0.2642,-0.2645,-0.2685,-0.2682,0,0,0,0,0,0,-0.2287,-0.2297,-0.2403,-0.2407,-0.2347,-0.2396,-0.2406,-0.2432,-0.25,-0.251,-0.2453,-0.2453,-0.2565,-0.2577,-0.259,-0.2597,-0.2639,-0.2645,-0.2649,-0.2687,-0.2684,-0.2681,0,0,0,0,0,0,-0.2284,-0.2297,-0.2401,-0.2353,-0.2366,-0.2399,-0.2429,-0.2434,-0.2455,-0.2508,-0.2519,-0.247,-0.2565,-0.2581,-0.2616,-0.2604,-0.2648,-0.2653,-0.269,-0.2686,-0.2683,-0.2645,0,0,0,0,0,0,-0.228,-0.2296,-0.2302,-0.2354,-0.2369,-0.2424,-0.243,-0.2435,-0.2462,-0.2463,-0.2527,-0.2539,-0.2566,-0.2607,-0.2622,-0.2613,-0.2658,-0.2693,-0.2688,-0.2684,-0.2649,-0.264,-0.2632,0,0,0,0,0,-0.2275,-0.2288,-0.2303,-0.2315,-0.2381,-0.2424,-0.2431,-0.2451,-0.2463,-0.247,-0.2493,-0.2537,-0.2585,-0.2611,-0.2629,-0.2622,-0.2696,-0.269,-0.2684,-0.2653,-0.2642,-0.2632,0,0,0,0,0,0,-0.2243,-0.2293,-0.2309,-0.2342,-0.2378,-0.2427,-0.2443,-0.2459,-0.2485,-0.249,-0.2534,-0.2547,-0.2565,-0.2591,-0.2618,-0.2607,-0.2637,-0.2635,-0.2607,-0.2597,-0.2589,-0.258,-0.2663,0,0,0,0,0,-0.2237,-0.2257,-0.2308,-0.2338,-0.2361,-0.2405,-0.2424,-0.2441,-0.2475,-0.2487,-0.2526,-0.2547,-0.2555,-0.2575,-0.2595,-0.262,-0.2621,-0.2611,-0.2603,-0.2596,-0.2593,-0.2566,-0.2556,-0.2662,-0.2662,-0.2662,0,0,-0.2213,-0.2266,-0.2262,-0.233,-0.237,-0.2384,-0.2416,-0.2454,-0.2456,-0.2502,-0.2522,-0.2538,-0.2552,-0.2554,-0.2564,-0.2581,-0.2561,-0.2588,-0.2583,-0.2584,-0.2559,-0.2549,-0.2541,-0.2658,-0.2659,-0.266,0,0,-0.2207,-0.2253,-0.2262,-0.2288,-0.2351,-0.2381,-0.2394,-0.2445,-0.2459,-0.2489,-0.2488,-0.2488,-0.2544,-0.252,-0.2521,-0.248,-0.2518,-0.2484,-0.2448,-0.2421,-0.2413,-0.2406,-0.2387,-0.2379,-0.2479,-0.2479,-0.2479,0,-0.2181,-0.2216,-0.2269,-0.2296,-0.231,-0.2378,-0.2383,-0.2408,-0.2454,-0.2459,-0.249,-0.2496,-0.2518,-0.2478,-0.2448,-0.2466,-0.246,-0.2497,-0.2414,-0.2407,-0.2401,-0.2383,-0.2374,-0.2477,-0.2477,-0.2477,-0.2478,0,-0.2167,-0.2194,-0.2216,-0.2263,-0.2284,-0.2309,-0.2349,-0.2372,-0.2414,-0.243,-0.243,-0.2444,-0.2442,-0.2432,-0.244,-0.2383,-0.2397,-0.2411,-0.2451,-0.2388,-0.2372,-0.2364,-0.2473,-0.2474,-0.2475,-0.2475,0,0,-0.2107,-0.2184,-0.2184,-0.2208,-0.2266,-0.2291,-0.2301,-0.2327,-0.234,-0.2369,-0.2369,-0.2353,-0.2369,-0.2364,-0.2359,-0.233,-0.2278,-0.2351,-0.235,-0.235,-0.2223,-0.2157,-0.2142,-0.2286,-0.2284,-0.2283,-0.2229,0,-0.2083,-0.2117,-0.2152,-0.2168,-0.2193,-0.2238,-0.2249,-0.2273,-0.2315,-0.2334,-0.233,-0.2341,-0.2339,-0.2345,-0.2308,-0.2299,-0.2255,-0.2291,-0.2267,-0.2266,-0.223,-0.2129,-0.1975,-0.1906,-0.2221,-0.222,-0.2219,0,-0.2041,-0.2087,-0.2089,-0.2154,-0.2167,-0.2174,-0.2214,-0.2229,-0.2257,-0.2291,-0.2285,-0.2308,-0.2264,-0.2286,-0.2219,-0.2247,-0.2221,-0.2208,-0.2207,-0.2154,-0.2183,-0.2018,-0.188,-0.2206,-0.2207,-0.2208,-0.2209,0,-0.1982,-0.2037,-0.2046,-0.2056,-0.2127,-0.2135,-0.2173,-0.2209,-0.2235,-0.2259,-0.2287,-0.2255,-0.2254,-0.2214,-0.2192,-0.2209,-0.2128,-0.2154,-0.2058,-0.2054,-0.192,-0.1907,-0.2081,-0.2081,-0.2081,-0.2081,-0.2082,0,-0.1935,-0.194,-0.2025,-0.2027,-0.2057,-0.2108,-0.2134,-0.217,-0.2213,-0.222,-0.2258,-0.2248,-0.2238,-0.2204,-0.2176,-0.2084,-0.2111,-0.2023,-0.202,-0.1899,-0.1885,-0.2152,-0.2161,-0.2079,-0.208,-0.208,-0.2081,0,-0.1849,-0.1892,-0.1929,-0.2009,-0.2032,-0.2052,-0.2129,-0.2141,-0.2199,-0.2206,-0.2215,-0.2238,-0.2183,-0.2163,-0.21,-0.2054,-0.1989,-0.1946,-0.1809,-0.1788,-0.194,-0.1947,-0.1828,-0.1825,-0.1822,-0.182,-0.1818,0,-0.1798,-0.1812,-0.1912,-0.1927,-0.196,-0.2006,-0.2029,-0.2116,-0.2129,-0.2178,-0.2163,-0.2147,-0.2083,-0.1987,-0.1903,-0.1815,-0.1896,-0.1637,-0.1624,-0.1896,-0.1906,-0.1918,-0.1928,-0.1433,-0.1428,-0.1424,-0.1421,0,-0.172,-0.1765,-0.1798,-0.1843,-0.1873,-0.1906,-0.195,-0.1966,-0.2033,-0.2057,-0.2031,-0.1991,-0.1897,-0.1724,-0.1635,-0.157,-0.1643,-0.1552,-0.1845,-0.1528,-0.152,-0.1532,-0.1556,-0.1386,-0.1389,-0.1392,-0.1394,-0.1395,-0.1654,-0.1668,-0.1712,-0.173,-0.1763,-0.1752,-0.1729,-0.1783,-0.1789,-0.1771,-0.183,-0.1727,-0.1674,-0.1442,-0.1346,-0.1276,-0.1393,-0.1333,-0.1346,-0.1364,-0.1333,-0.1322,-0.1145,-0.1147,-0.1149,-0.1151,-0.1152,0,-0.1558,-0.1566,-0.1586,-0.1588,-0.1546,-0.1613,-0.1617,-0.1562,-0.1517,-0.1552,-0.1522,-0.1329,-0.1206,-0.1168,-0.0993,-0.0953,-0.0956,-0.0918,-0.0925,-0.0959,-0.099,-0.0943,-0.065,-0.0649,-0.0648,-0.0647,0,0,-0.1497,-0.1466,-0.147,-0.1346,-0.1339,-0.124,-0.1207,-0.1178,-0.1172,-0.1112,-0.1083,-0.1163,-0.114,-0.0916,-0.0842,-0.0717,-0.0837,-0.0676,-0.1074,-0.1117,-0.1147,-0.1218,-0.1182,0,0,0,0,0]},{"header":{"parameterUnit":"m.s-1","parameterCategory":2,"la1":30.2991,"la2":30.254,"lo1":-89.0895,"lo2":-89.0444,"dy":0.0017,"dx":0.0017,"nx":28,"ny":28,"refTime":"2023-11-05T09:00:00:Z","depth":"2","parameterNumber":3,"parameterNumberName":"V-component_of_CURRENTS"},"data":[0,0,0,0,0,0,0,0,0,0,0,0,0,0,0,0,0,0,0,0,0,0,0,0,0,0,0,0,0,0,0,0,0,0,0,0,0,0,0,0,0,0,0,0,0,0,0,0,0,0,0,0,0,0,0,0,0,0,-0.0405,-0.0404,0,-0.0315,-0.0314,-0.0313,-0.0256,-0.0255,-0.0255,-0.0255,0.0021,0.0028,0.0035,0,0,0,0,0,0,0,0,0,0,0,0,0,-0.0481,-0.048,-0.0405,-0.0404,-0.0403,-0.0315,-0.0314,-0.0312,-0.0256,-0.0255,-0.0255,-0.0254,0.0019,0.0027,0.0035,0,0,0,0,0,0,0,0,0,0,0,0,0,-0.0426,-0.048,-0.0405,-0.0364,-0.0359,-0.0315,-0.0314,-0.0312,-0.0256,-0.0255,-0.0255,-0.0254,0.0016,0.0026,0.0036,0.0091,0,0,0.0069,0.0073,0,0,0,0,0,0,0,0,-0.0429,-0.0423,-0.0371,-0.0366,-0.0361,-0.0296,-0.0239,-0.0168,-0.0256,-0.0295,-0.0255,-0.0254,-0.0068,-0.0051,-0.0038,0.0104,0.0115,0.007,0.0076,0.008,0.0083,0,0,0,0,0,0,0,-0.0433,-0.0426,-0.0369,-0.037,-0.0364,-0.0333,-0.0325,-0.0226,-0.0182,-0.0292,-0.0287,-0.0277,-0.0064,-0.0048,-0.003,0.0119,0.0069,0.0079,0.0085,0.0089,0.0298,0.0297,0,0,0,0,0,0,-0.0446,-0.043,-0.0372,-0.0367,-0.0394,-0.0332,-0.0323,-0.0317,-0.0187,-0.0169,-0.0278,-0.0275,-0.0067,-0.0043,-0.002,0.005,0.008,0.009,0.0096,0.0299,0.0298,0.0297,0,0,0,0,0,0,-0.0448,-0.0442,-0.0376,-0.0396,-0.0385,-0.0332,-0.0325,-0.0316,-0.0299,-0.0179,-0.0156,-0.027,-0.0065,-0.0035,0.0041,0.0062,0.0095,0.0104,0.03,0.0298,0.0297,0.0194,0,0,0,0,0,0,-0.0451,-0.0444,-0.0453,-0.0397,-0.0385,-0.0356,-0.0326,-0.0314,-0.0293,-0.0288,-0.0164,-0.0139,-0.0062,0.0024,0.0051,0.0077,0.0113,0.03,0.0299,0.0298,0.0198,0.0189,0.0181,0,0,0,0,0,-0.0454,-0.0465,-0.0454,-0.0447,-0.0396,-0.0356,-0.0347,-0.0307,-0.0293,-0.029,-0.0224,-0.0143,0.0035,0.0032,0.0064,0.0093,0.0301,0.0299,0.0298,0.0202,0.0191,0.0182,0,0,0,0,0,0,-0.0498,-0.0458,-0.0445,-0.0443,-0.0407,-0.0347,-0.0341,-0.0313,-0.0262,-0.0256,-0.0149,-0.0119,-0.0045,0.0029,0.0022,0.0144,0.0182,0.0186,0.0098,0.0089,0.0081,0.0071,0.0121,0,0,0,0,0,-0.0515,-0.0516,-0.0466,-0.0466,-0.0449,-0.0398,-0.038,-0.0353,-0.0297,-0.0275,-0.0192,-0.0106,-0.0028,0.003,0.0108,0.0184,0.0234,0.022,0.0211,0.0204,0.0214,0.0267,0.0265,0.0291,0.0291,0.0291,0,0,-0.0536,-0.0511,-0.0514,-0.0476,-0.0445,-0.0422,-0.0386,-0.0361,-0.0338,-0.0247,-0.0193,-0.0128,-0.002,0.0049,0.0091,0.0118,0.0219,0.0202,0.0195,0.021,0.0265,0.0263,0.0261,0.029,0.029,0.0291,0,0,-0.0562,-0.0551,-0.0554,-0.0527,-0.0485,-0.045,-0.0446,-0.0389,-0.036,-0.0309,-0.0244,-0.0185,-0.0053,0.0015,0.0072,0.0068,0.0164,0.0102,0.0075,0.0124,0.0123,0.0122,0.0163,0.0167,0.0109,0.0109,0.0109,0,-0.0585,-0.0578,-0.0549,-0.0534,-0.0514,-0.0465,-0.0452,-0.0417,-0.0345,-0.0315,-0.0303,-0.0151,-0.0069,0.0024,0.0013,0.0055,0.0093,0.0104,0.0113,0.0114,0.0115,0.0158,0.0164,0.0104,0.0104,0.0105,0.0105,0,-0.0603,-0.0597,-0.0594,-0.0562,-0.0539,-0.0523,-0.0467,-0.0441,-0.0405,-0.036,-0.0283,-0.02,-0.0104,-0.0075,-0.0025,0.0033,0.0059,0.0085,0.0136,0.0106,0.0153,0.0161,0.0096,0.0098,0.01,0.0101,0,0,-0.0647,-0.0614,-0.0613,-0.0602,-0.0553,-0.0533,-0.0498,-0.0444,-0.0416,-0.0357,-0.0309,-0.0209,-0.0171,-0.0108,-0.0041,0.0003,0.0029,0.0043,0.0048,0.008,0.0134,0.016,0.0171,0.0055,0.0056,0.0057,0.0157,0,-0.0664,-0.0657,-0.0629,-0.0617,-0.0604,-0.0553,-0.0524,-0.0473,-0.042,-0.0366,-0.0285,-0.0218,-0.0178,-0.014,-0.0091,0.0008,0.0048,-0.0001,0.0164,0.0169,0.0192,0.0181,0.0158,0.0246,0.0165,0.0166,0.0167,0,-0.0684,-0.0676,-0.0673,-0.0638,-0.0627,-0.0614,-0.0558,-0.0524,-0.0439,-0.0397,-0.0325,-0.0258,-0.017,-0.015,-0.0003,-0.0035,0.004,0.0103,0.0109,0.0181,0.021,0.0269,0.0265,0.0181,0.018,0.0179,0.0178,0,-0.0726,-0.0701,-0.0704,-0.0693,-0.0649,-0.0637,-0.0611,-0.0539,-0.0505,-0.0419,-0.0386,-0.0274,-0.0212,-0.0111,0.0018,0.0011,0.0169,0.0181,0.0273,0.0275,0.0316,0.0321,0.0272,0.0272,0.0271,0.0271,0.0271,0,-0.0747,-0.0747,-0.0729,-0.0731,-0.0736,-0.0684,-0.0667,-0.0622,-0.0549,-0.0504,-0.0411,-0.0348,-0.0201,-0.009,0.0014,0.0173,0.0171,0.0274,0.0307,0.0277,0.0276,0.0274,0.0273,0.0275,0.0274,0.0273,0.0273,0,-0.0787,-0.0771,-0.0782,-0.0762,-0.0758,-0.0766,-0.0724,-0.0703,-0.0628,-0.0566,-0.0542,-0.0394,-0.0241,-0.0096,0.0086,0.0176,0.0315,0.0367,0.0316,0.0342,0.0386,0.0379,0.0484,0.0485,0.0487,0.0488,0.0489,0,-0.0803,-0.0814,-0.0831,-0.0851,-0.0846,-0.0844,-0.0838,-0.0762,-0.0727,-0.0587,-0.0556,-0.0396,-0.0266,0.0003,0.0189,0.0381,0.037,0.046,0.0446,0.0389,0.0411,0.04,0.0391,0.0452,0.0453,0.0454,0.0454,0,-0.0843,-0.0859,-0.0879,-0.0926,-0.0939,-0.0938,-0.0913,-0.0896,-0.0785,-0.0713,-0.0577,-0.0463,-0.0181,0.0047,0.0293,0.0394,0.0427,0.0479,0.0452,0.0397,0.0366,0.0385,0.0376,0.0459,0.0459,0.0458,0.0458,0.0458,-0.0883,-0.0926,-0.0963,-0.1,-0.1017,-0.1016,-0.1003,-0.0954,-0.089,-0.0746,-0.0624,-0.0421,-0.0178,0.0186,0.0361,0.0516,0.051,0.054,0.0535,0.0531,0.0504,0.0478,0.0586,0.0586,0.0586,0.0587,0.0587,0,-0.0932,-0.0974,-0.1026,-0.1064,-0.1081,-0.107,-0.1034,-0.0985,-0.0908,-0.0762,-0.0618,-0.0331,-0.0068,0.0177,0.0443,0.0596,0.057,0.0601,0.0544,0.0539,0.0534,0.0504,0.0588,0.0589,0.0589,0.059,0,0,-0.096,-0.1028,-0.1057,-0.1101,-0.1118,-0.1102,-0.1074,-0.0994,-0.0875,-0.0715,-0.0554,-0.036,-0.0042,0.0144,0.0339,0.0478,0.0458,0.0476,0.0458,0.0361,0.0354,0.0483,0.043,0,0,0,0,0]}],[{"header":{"parameterUnit":"m.s-1","parameterCategory":2,"la1":30.2991,"la2":30.254,"lo1":-89.0895,"lo2":-89.0444,"dy":0.0017,"dx":0.0017,"nx":28,"ny":28,"refTime":"2023-11-05T09:00:00:Z","depth":"4","parameterNumber":2,"parameterNumberName":"U-component_of_CURRENTS"},"data":[0,0,0,0,0,0,0,0,0,0,0,0,0,0,0,0,0,0,0,0,0,0,0,0,0,0,0,0,0,0,0,0,0,0,0,0,0,0,0,0,0,0,0,0,0,0,0,0,0,0,0,0,0,0,0,0,0,0,-0.1362,-0.1363,0,-0.1429,-0.1429,-0.143,-0.1478,-0.1479,-0.1479,-0.148,-0.1551,-0.1552,-0.1553,0,0,0,0,0,0,0,0,0,0,0,0,0,-0.1247,-0.1248,-0.1362,-0.1363,-0.1364,-0.1429,-0.1429,-0.143,-0.1478,-0.1479,-0.1479,-0.148,-0.155,-0.1552,-0.1553,0,0,0,0,0,0,0,0,0,0,0,0,0,-0.1301,-0.1249,-0.1362,-0.1397,-0.1401,-0.1429,-0.1429,-0.143,-0.1478,-0.1479,-0.148,-0.1481,-0.155,-0.1552,-0.1553,-0.1547,0,0,-0.1559,-0.156,0,0,0,0,0,0,0,0,-0.1298,-0.1305,-0.1391,-0.1395,-0.1399,-0.1448,-0.1415,-0.147,-0.1478,-0.1446,-0.148,-0.1481,-0.1517,-0.1522,-0.1529,-0.1551,-0.1554,-0.156,-0.1561,-0.1562,-0.1562,0,0,0,0,0,0,0,-0.1294,-0.1302,-0.1386,-0.1392,-0.1397,-0.14,-0.1409,-0.1425,-0.1474,-0.1449,-0.1453,-0.1464,-0.152,-0.1527,-0.1531,-0.1555,-0.156,-0.1561,-0.1563,-0.1563,-0.1596,-0.1596,0,0,0,0,0,0,-0.1291,-0.1299,-0.1384,-0.1388,-0.1353,-0.1402,-0.1412,-0.143,-0.1474,-0.1482,-0.1463,-0.1466,-0.1523,-0.1529,-0.1534,-0.1586,-0.1562,-0.1564,-0.1565,-0.1597,-0.1596,-0.1596,0,0,0,0,0,0,-0.1289,-0.1299,-0.1381,-0.1346,-0.1357,-0.1403,-0.1423,-0.1431,-0.1466,-0.1485,-0.1493,-0.1494,-0.1524,-0.1531,-0.1568,-0.1587,-0.1564,-0.1566,-0.1597,-0.1596,-0.1596,-0.1654,0,0,0,0,0,0,-0.1285,-0.1297,-0.1313,-0.1346,-0.1359,-0.141,-0.1423,-0.1431,-0.147,-0.1475,-0.1514,-0.152,-0.1526,-0.1565,-0.157,-0.1589,-0.1568,-0.1597,-0.1597,-0.1596,-0.1652,-0.1655,-0.1658,0,0,0,0,0,-0.1281,-0.1299,-0.1313,-0.1324,-0.1379,-0.1411,-0.1418,-0.1451,-0.1471,-0.1486,-0.1514,-0.152,-0.1564,-0.1567,-0.1573,-0.1593,-0.1598,-0.1597,-0.1596,-0.1651,-0.1655,-0.1658,0,0,0,0,0,0,-0.1254,-0.1307,-0.1323,-0.1356,-0.1387,-0.1421,-0.1444,-0.1465,-0.1499,-0.1512,-0.1529,-0.1537,-0.157,-0.1567,-0.157,-0.1594,-0.1576,-0.1577,-0.1615,-0.1619,-0.1622,-0.1624,-0.1569,0,0,0,0,0,-0.1255,-0.1288,-0.1328,-0.1356,-0.1376,-0.1414,-0.1435,-0.1459,-0.1491,-0.1508,-0.1537,-0.1555,-0.1565,-0.1584,-0.159,-0.1617,-0.1607,-0.1625,-0.1628,-0.1631,-0.1633,-0.1642,-0.1647,-0.1594,-0.1594,-0.1594,0,0,-0.1253,-0.1286,-0.1305,-0.1353,-0.1384,-0.1414,-0.1429,-0.1471,-0.1498,-0.1509,-0.1562,-0.1571,-0.1572,-0.1597,-0.1611,-0.1606,-0.1637,-0.163,-0.1633,-0.1633,-0.1642,-0.1648,-0.1653,-0.1593,-0.1593,-0.1593,0,0,-0.1259,-0.1296,-0.1324,-0.1353,-0.1405,-0.1428,-0.1445,-0.1495,-0.1522,-0.1561,-0.1572,-0.1597,-0.1622,-0.1629,-0.1632,-0.1652,-0.1649,-0.1651,-0.1681,-0.1691,-0.1696,-0.17,-0.1686,-0.1689,-0.1658,-0.1658,-0.1658,0,-0.1256,-0.1298,-0.1335,-0.1366,-0.14,-0.1438,-0.1474,-0.1497,-0.1552,-0.1583,-0.1582,-0.1627,-0.1631,-0.1662,-0.1665,-0.1662,-0.166,-0.1676,-0.1698,-0.1702,-0.1705,-0.169,-0.1692,-0.1661,-0.166,-0.166,-0.166,0,-0.1276,-0.1317,-0.1339,-0.1396,-0.1429,-0.1469,-0.151,-0.155,-0.1586,-0.1614,-0.1662,-0.1666,-0.1695,-0.1692,-0.1687,-0.1717,-0.1705,-0.1701,-0.1697,-0.1715,-0.1696,-0.1698,-0.1665,-0.1664,-0.1663,-0.1662,0,0,-0.1262,-0.134,-0.1351,-0.139,-0.1456,-0.1488,-0.1537,-0.1598,-0.164,-0.1675,-0.1724,-0.1736,-0.1752,-0.1753,-0.1753,-0.1758,-0.1776,-0.1747,-0.1746,-0.1747,-0.1789,-0.1657,-0.1646,-0.1789,-0.179,-0.1791,-0.1763,0,-0.1276,-0.1339,-0.1377,-0.1444,-0.1487,-0.1541,-0.1584,-0.164,-0.1681,-0.173,-0.1746,-0.178,-0.177,-0.1787,-0.1796,-0.1781,-0.1784,-0.1783,-0.1758,-0.1757,-0.165,-0.1644,-0.1793,-0.1764,-0.1764,-0.1764,-0.1765,0,-0.1284,-0.1335,-0.1401,-0.1492,-0.1518,-0.1558,-0.1652,-0.1693,-0.1758,-0.179,-0.1831,-0.1842,-0.1862,-0.184,-0.1839,-0.1845,-0.1823,-0.1802,-0.1801,-0.1659,-0.1628,-0.1742,-0.1767,-0.1767,-0.1767,-0.1766,-0.1766,0,-0.1262,-0.1352,-0.1412,-0.1442,-0.154,-0.159,-0.1645,-0.1721,-0.1761,-0.1828,-0.1852,-0.189,-0.1893,-0.189,-0.1848,-0.1856,-0.1825,-0.1829,-0.1689,-0.1679,-0.1785,-0.1781,-0.1825,-0.1825,-0.1825,-0.1825,-0.1825,0,-0.1255,-0.1307,-0.1412,-0.1445,-0.1524,-0.1596,-0.167,-0.1728,-0.1797,-0.1824,-0.1882,-0.1883,-0.1906,-0.189,-0.1863,-0.1765,-0.184,-0.1683,-0.1662,-0.1806,-0.1804,-0.1786,-0.1782,-0.1824,-0.1824,-0.1824,-0.1824,0,-0.1209,-0.1275,-0.1356,-0.1476,-0.1514,-0.1572,-0.1677,-0.1713,-0.1792,-0.1821,-0.184,-0.1884,-0.1846,-0.1844,-0.1814,-0.1753,-0.1692,-0.1643,-0.178,-0.1769,-0.154,-0.1539,-0.1485,-0.148,-0.1476,-0.1473,-0.147,0,-0.1184,-0.1225,-0.1364,-0.1399,-0.1455,-0.1544,-0.1589,-0.1697,-0.1719,-0.179,-0.178,-0.1787,-0.179,-0.1639,-0.1661,-0.1594,-0.1573,-0.1543,-0.1552,-0.1519,-0.1505,-0.1511,-0.1515,-0.1463,-0.1462,-0.1461,-0.146,0,-0.1143,-0.1205,-0.1263,-0.134,-0.1402,-0.146,-0.1529,-0.1536,-0.1623,-0.1719,-0.1662,-0.1628,-0.1576,-0.1536,-0.1487,-0.1448,-0.1566,-0.1499,-0.1508,-0.1516,-0.1492,-0.1483,-0.1493,-0.1445,-0.1447,-0.1449,-0.145,0,-0.1104,-0.113,-0.1201,-0.1251,-0.1321,-0.1327,-0.1391,-0.1398,-0.1438,-0.1521,-0.1494,-0.1499,-0.1547,-0.1458,-0.1417,-0.1359,-0.134,-0.1305,-0.1324,-0.134,-0.1304,-0.1252,-0.1103,0,0,0,0,0,-0.1054,-0.1054,-0.1096,-0.1134,-0.1194,-0.1223,-0.1314,-0.1371,-0.1463,-0.1381,-0.1432,-0.1375,-0.1303,-0.1319,-0.1223,-0.1345,-0.1345,-0.123,-0.1316,-0.1365,-0.1382,-0.1351,0,0,0,0,0,0,-0.1006,-0.1045,-0.1054,-0.1011,-0.1003,-0.1047,-0.1095,-0.1165,-0.1131,-0.1231,-0.1198,-0.1281,-0.1232,-0.1315,-0.1186,-0.1189,-0.1213,-0.1254,-0.125,-0.1356,-0.1371,-0.1384,-0.1358,0,0,0,0,0]},{"header":{"parameterUnit":"m.s-1","parameterCategory":2,"la1":30.2991,"la2":30.254,"lo1":-89.0895,"lo2":-89.0444,"dy":0.0017,"dx":0.0017,"nx":28,"ny":28,"refTime":"2023-11-05T09:00:00:Z","depth":"4","parameterNumber":3,"parameterNumberName":"V-component_of_CURRENTS"},"data":[0,0,0,0,0,0,0,0,0,0,0,0,0,0,0,0,0,0,0,0,0,0,0,0,0,0,0,0,0,0,0,0,0,0,0,0,0,0,0,0,0,0,0,0,0,0,0,0,0,0,0,0,0,0,0,0,0,0,-0.037,-0.037,0,-0.0355,-0.0355,-0.0355,-0.034,-0.034,-0.0339,-0.0339,-0.0303,-0.0302,-0.0301,0,0,0,0,0,0,0,0,0,0,0,0,0,-0.0386,-0.0386,-0.037,-0.037,-0.0369,-0.0355,-0.0355,-0.0355,-0.034,-0.034,-0.0339,-0.0339,-0.0303,-0.0302,-0.0301,0,0,0,0,0,0,0,0,0,0,0,0,0,-0.0378,-0.0386,-0.037,-0.0359,-0.0357,-0.0355,-0.0355,-0.0355,-0.034,-0.034,-0.0339,-0.0339,-0.0303,-0.0302,-0.0301,-0.0308,0,0,-0.0299,-0.0298,0,0,0,0,0,0,0,0,-0.0378,-0.0377,-0.0361,-0.0359,-0.0358,-0.0347,-0.0347,-0.0338,-0.034,-0.0349,-0.0339,-0.0338,-0.0315,-0.0313,-0.0315,-0.0306,-0.0304,-0.0299,-0.0298,-0.0298,-0.0297,0,0,0,0,0,0,0,-0.0379,-0.0378,-0.0366,-0.036,-0.0358,-0.0354,-0.0353,-0.0346,-0.0336,-0.0348,-0.0346,-0.0342,-0.0314,-0.0315,-0.0313,-0.0304,-0.0299,-0.0298,-0.0297,-0.0297,-0.028,-0.028,0,0,0,0,0,0,-0.0377,-0.0378,-0.0367,-0.0366,-0.0364,-0.0354,-0.0353,-0.0353,-0.0337,-0.0334,-0.0342,-0.0341,-0.0317,-0.0315,-0.0312,-0.0292,-0.0298,-0.0297,-0.0296,-0.028,-0.028,-0.028,0,0,0,0,0,0,-0.0378,-0.0376,-0.0367,-0.037,-0.0368,-0.0354,-0.0355,-0.0353,-0.0358,-0.0332,-0.0329,-0.035,-0.0317,-0.0313,-0.0309,-0.0291,-0.0296,-0.0296,-0.028,-0.028,-0.028,-0.0269,0,0,0,0,0,0,-0.0378,-0.0377,-0.0386,-0.037,-0.0368,-0.0367,-0.0355,-0.0353,-0.0355,-0.0354,-0.0338,-0.0334,-0.0316,-0.0311,-0.0309,-0.029,-0.0295,-0.028,-0.028,-0.028,-0.0269,-0.0269,-0.0268,0,0,0,0,0,-0.0379,-0.0389,-0.0387,-0.0385,-0.0378,-0.0367,-0.0366,-0.0356,-0.0356,-0.0359,-0.035,-0.0334,-0.031,-0.0311,-0.0308,-0.0289,-0.0279,-0.028,-0.028,-0.0269,-0.0269,-0.0268,0,0,0,0,0,0,-0.0401,-0.0388,-0.0385,-0.0391,-0.0381,-0.0364,-0.0368,-0.0364,-0.0361,-0.0364,-0.0342,-0.0337,-0.0324,-0.0317,-0.0319,-0.0286,-0.0289,-0.0289,-0.0283,-0.0282,-0.0281,-0.0274,-0.0294,0,0,0,0,0,-0.041,-0.0416,-0.0398,-0.0405,-0.04,-0.0389,-0.0387,-0.0381,-0.0371,-0.037,-0.0355,-0.0341,-0.0323,-0.0313,-0.0301,-0.029,-0.026,-0.0275,-0.0274,-0.0274,-0.0267,-0.0201,-0.0193,-0.0281,-0.0281,-0.0281,0,0,-0.042,-0.0415,-0.0418,-0.0411,-0.0404,-0.0396,-0.0387,-0.0387,-0.0379,-0.0367,-0.0357,-0.0344,-0.0323,-0.0303,-0.0296,-0.0293,-0.0237,-0.0274,-0.0274,-0.0267,-0.0201,-0.0192,-0.0184,-0.0281,-0.0281,-0.0281,0,0,-0.0436,-0.0438,-0.0444,-0.0436,-0.0426,-0.0415,-0.0416,-0.0401,-0.0393,-0.0389,-0.0368,-0.0346,-0.0334,-0.0298,-0.0283,-0.0277,-0.0241,-0.0276,-0.0259,-0.0195,-0.0187,-0.0179,-0.0141,-0.013,-0.027,-0.027,-0.027,0,-0.0449,-0.0452,-0.0444,-0.0442,-0.0435,-0.0423,-0.042,-0.0409,-0.0395,-0.0379,-0.0387,-0.0337,-0.0325,-0.0271,-0.0269,-0.0271,-0.024,-0.026,-0.0192,-0.0183,-0.0175,-0.0138,-0.0126,-0.0269,-0.0269,-0.0269,-0.0269,0,-0.046,-0.0464,-0.0466,-0.0457,-0.0449,-0.0448,-0.0424,-0.0416,-0.0409,-0.0388,-0.0348,-0.0324,-0.0288,-0.0278,-0.0275,-0.0208,-0.0206,-0.0201,-0.0188,-0.0165,-0.0129,-0.0116,-0.0268,-0.0269,-0.0269,-0.0269,0,0,-0.0486,-0.0476,-0.0479,-0.0475,-0.0458,-0.0452,-0.0434,-0.0404,-0.0385,-0.0361,-0.0323,-0.0285,-0.0263,-0.0245,-0.022,-0.0167,-0.0095,-0.0163,-0.016,-0.0116,0.0034,-0.0,0.001,-0.007,-0.0068,-0.0066,0.0035,0,-0.0497,-0.0502,-0.0489,-0.0487,-0.0483,-0.0459,-0.0441,-0.0413,-0.0385,-0.0346,-0.0294,-0.0261,-0.0251,-0.0234,-0.0173,-0.0121,-0.006,-0.0124,-0.0002,0.0002,-0.0023,0.0025,-0.0058,0.0044,0.0047,0.0049,0.0051,0,-0.0508,-0.0512,-0.0518,-0.0498,-0.0493,-0.049,-0.0453,-0.0434,-0.037,-0.0345,-0.0283,-0.0248,-0.017,-0.0171,-0.0036,-0.0077,-0.0019,0.0026,0.0031,0.0007,-0.0009,0.0019,0.0074,0.0072,0.007,0.0069,0.0067,0,-0.0531,-0.0526,-0.0536,-0.0532,-0.051,-0.0505,-0.0491,-0.0439,-0.0417,-0.0344,-0.0319,-0.0215,-0.0176,-0.0074,0.0001,-0.0007,0.0144,0.0145,0.0177,0.0175,0.017,0.0161,0.0259,0.0259,0.0258,0.0258,0.0258,0,-0.054,-0.0548,-0.0553,-0.0559,-0.0568,-0.0536,-0.0525,-0.0492,-0.0435,-0.0402,-0.0324,-0.0275,-0.0149,-0.0057,0.0022,0.0131,0.0167,0.0195,0.021,0.0168,0.0158,0.0179,0.0168,0.0262,0.0261,0.026,0.026,0,-0.0559,-0.0561,-0.0579,-0.0578,-0.0582,-0.0592,-0.057,-0.0553,-0.0495,-0.0448,-0.0428,-0.0308,-0.0189,-0.007,0.0089,0.0144,0.0254,0.0285,0.0219,0.0226,0.0239,0.0228,0.0348,0.0348,0.0348,0.0347,0.0347,0,-0.0565,-0.058,-0.0615,-0.0639,-0.0646,-0.0654,-0.0656,-0.06,-0.0575,-0.047,-0.0447,-0.0323,-0.0239,-0.0035,0.0087,0.0253,0.0267,0.032,0.0299,0.0252,0.0255,0.0243,0.0232,0.0347,0.0347,0.0347,0.0347,0,-0.0585,-0.0611,-0.0633,-0.0692,-0.0716,-0.0724,-0.0718,-0.0698,-0.0621,-0.0569,-0.0453,-0.0333,-0.0196,-0.004,0.0083,0.02,0.0285,0.032,0.0321,0.0302,0.0252,0.0253,0.0242,0.0347,0.0347,0.0347,0.0347,0,-0.061,-0.0645,-0.0692,-0.0733,-0.0772,-0.0782,-0.0768,-0.0719,-0.0675,-0.0547,-0.0511,-0.0347,-0.024,-0.0066,0.0048,0.0157,0.0187,0.0213,0.022,0.0222,0.0145,0.0062,0.0127,0,0,0,0,0,-0.0627,-0.0672,-0.0725,-0.0768,-0.0806,-0.0819,-0.0802,-0.0771,-0.0694,-0.0622,-0.0558,-0.0428,-0.0224,-0.0126,-0.0021,0.0032,0.0188,0.0155,0.0217,0.0345,0.0345,0.0273,0,0,0,0,0,0,-0.0641,-0.0703,-0.0731,-0.0785,-0.0817,-0.0843,-0.0832,-0.0781,-0.0722,-0.0633,-0.0523,-0.0426,-0.0231,-0.0292,-0.0029,0.0009,0.0057,0.0264,0.0266,0.0344,0.0345,0.0345,0.0271,0,0,0,0,0]}]]